Clarksville, TN

7:29 AM CDT on May 27, 2017 (GMT -0500)
Outlaw

Weather History for KCKV - January, 2012

Change the Weather History Date:

Sunday, January 1, 2012

  Actual Average Record
Temperature  
Mean Temperature 49 °F 36 °F  
Max Temperature 61 °F 46 °F 79 °F (1952)
Min Temperature 36 °F 27 °F 0 °F (1977)
Degree Days  
Heating Degree Days 16    
Month to date heating degree days 16  
Since 1 July heating degree days  
Cooling Degree Days 0    
Month to date cooling degree days 0  
Year to date cooling degree days  
Moisture  
Dew Point 34 °F    
Average Humidity 55    
Maximum Humidity 72    
Minimum Humidity 37    
Precipitation  
Precipitation 0.00 in 0.11 in 1.60 in (1979)
Month to date precipitation 0.00 0.11  
Year to date precipitation 0.11  
Sea Level Pressure  
Sea Level Pressure 30.09 in    
Wind  
Wind Speed 15 mph (West)    
Max Wind Speed 29 mph    
Max Gust Speed 39 mph    
Visibility 10 miles    
Events      
T = Trace of Precipitation, MM = Missing Value Source: NWS Daily Summary

Daily Weather History Graph

Daily Weather History Graph

Search for Another Location

Airport or City:

Trip Planner

Search our weather history database for the weather conditions in past years. The results will help you decide how hot, cold, wet, or windy it might be!

Date:

Astronomy

Jan. 01, 2012 Rise Set
Actual Time 7:01 AM CST 4:44 PM CST
Civil Twilight 6:33 AM CST 5:13 PM CST
Nautical Twilight 6:00 AM CST 5:45 PM CST
Astronomical Twilight 5:29 AM CST 6:16 PM CST
Moon 11:27 AM CST (1/1) 12:03 AM CST (1/1)
Length of Visible Light 10h 40m
Length of Day
9h 42m
First Quarter, 55% of the Moon is Illuminated
Jan 1
First Quarter
Jan 9
Full
Jan 16
Last Quarter
Jan 23
New
Jan 30
First Quarter

Hourly Weather History & Observations

Time (CST) Temp. Windchill Dew Point Humidity Pressure Visibility Wind Dir Wind Speed Gust Speed Precip Events Conditions
12:52 AM 57.0 °F - 39.0 °F 51% 29.90 in 10.0 mi South 15.0 mph - N/A   Mostly Cloudy
1:52 AM 57.9 °F - 42.1 °F 56% 29.89 in 10.0 mi SSW 13.8 mph 23.0 mph N/A   Overcast
2:52 AM 60.1 °F - 48.9 °F 67% 29.87 in 10.0 mi SSW 12.7 mph 27.6 mph N/A   Overcast
3:52 AM 60.1 °F - 51.1 °F 72% 29.87 in 10.0 mi SW 12.7 mph 21.9 mph N/A   Overcast
4:52 AM 60.1 °F - 52.0 °F 75% 29.87 in 10.0 mi SW 12.7 mph 20.7 mph N/A   Mostly Cloudy
5:01 AM 60.8 °F - 51.8 °F 72% 29.87 in 10.0 mi WSW 15.0 mph 26.5 mph N/A   Overcast
5:28 AM 60.8 °F - 51.8 °F 72% 29.88 in 10.0 mi WSW 10.4 mph 21.9 mph N/A   Mostly Cloudy
5:52 AM 59.0 °F - 50.0 °F 72% 29.90 in 10.0 mi West 17.3 mph 24.2 mph N/A   Scattered Clouds
6:52 AM 57.0 °F - 39.0 °F 51% 29.95 in 10.0 mi West 19.6 mph 33.4 mph N/A   Clear
7:52 AM 53.1 °F - 36.0 °F 52% 30.02 in 10.0 mi WNW 19.6 mph 27.6 mph N/A   Clear
8:52 AM 53.1 °F - 34.0 °F 48% 30.08 in 10.0 mi West 23.0 mph 28.8 mph N/A   Clear
9:52 AM 50.0 °F - 34.0 °F 54% 30.14 in 10.0 mi WNW 24.2 mph 34.5 mph N/A   Scattered Clouds
10:52 AM 50.0 °F - 34.0 °F 54% 30.16 in 10.0 mi WNW 17.3 mph 27.6 mph N/A   Scattered Clouds
11:52 AM 51.1 °F - 34.0 °F 52% 30.15 in 10.0 mi NW 16.1 mph 26.5 mph N/A   Clear
12:52 PM 52.0 °F - 33.1 °F 49% 30.15 in 10.0 mi WNW 18.4 mph 24.2 mph N/A   Partly Cloudy
1:52 PM 52.0 °F - 28.9 °F 41% 30.17 in 10.0 mi NW 19.6 mph 29.9 mph N/A   Partly Cloudy
2:52 PM 52.0 °F - 28.9 °F 41% 30.20 in 10.0 mi WNW 12.7 mph 23.0 mph N/A   Clear
4:52 PM 48.0 °F - 25.0 °F 41% 30.25 in 10.0 mi NW 15.0 mph 24.2 mph N/A   Clear
5:52 PM 46.0 °F 40.6 °F 21.0 °F 37% 30.27 in 10.0 mi WNW 11.5 mph - N/A   Clear
6:52 PM 43.0 °F 37.7 °F 21.0 °F 42% 30.29 in 10.0 mi NW 9.2 mph - N/A   Clear
7:52 PM 42.1 °F 36.6 °F 21.0 °F 43% 30.31 in 10.0 mi NW 9.2 mph - N/A   Partly Cloudy
9:52 PM 39.9 °F 31.1 °F 17.1 °F 40% 30.34 in 10.0 mi NW 17.3 mph - N/A   Clear
10:52 PM 37.9 °F 32.1 °F 17.1 °F 43% 30.33 in 10.0 mi NW 8.1 mph - N/A   Clear
11:52 PM 37.9 °F 30.0 °F 15.1 °F 39% 30.32 in 10.0 mi NW 12.7 mph - N/A   Clear